TimePDT,TemperatureF,Dew PointF,Humidity,Sea Level PressureIn,VisibilityMPH,Wind Direction,Wind SpeedMPH,Gust SpeedMPH,PrecipitationIn,Events,Conditions,WindDirDegrees,DateUTC
12:53 AM,57.0,30.9,37,29.95,10.0,West,4.6,-,N/A,,Clear,270,2012-10-29 07:53:00
1:53 AM,57.0,28.9,34,29.96,10.0,West,6.9,-,N/A,,Clear,260,2012-10-29 08:53:00
2:53 AM,54.0,32.0,43,29.96,10.0,West,4.6,-,N/A,,Clear,270,2012-10-29 09:53:00
3:53 AM,54.0,28.9,38,29.96,10.0,WSW,3.5,-,N/A,,Clear,250,2012-10-29 10:53:00
4:53 AM,54.0,28.9,38,29.96,10.0,WSW,3.5,-,N/A,,Clear,250,2012-10-29 11:53:00
5:53 AM,54.0,28.9,38,29.97,10.0,SW,3.5,-,N/A,,Clear,230,2012-10-29 12:53:00
6:53 AM,54.0,30.0,40,29.99,10.0,WSW,3.5,-,N/A,,Clear,240,2012-10-29 13:53:00
7:53 AM,57.9,30.0,35,30.01,10.0,Calm,Calm,-,N/A,,Clear,0,2012-10-29 14:53:00
8:53 AM,66.0,32.0,28,30.04,10.0,Calm,Calm,-,N/A,,Clear,0,2012-10-29 15:53:00
9:53 AM,73.0,36.0,26,30.04,10.0,Calm,Calm,-,N/A,,Clear,0,2012-10-29 16:53:00
10:53 AM,80.1,30.0,16,30.04,10.0,Calm,Calm,-,N/A,,Clear,0,2012-10-29 17:53:00
11:53 AM,84.9,32.0,15,30.03,10.0,NE,5.8,-,N/A,,Clear,40,2012-10-29 18:53:00
12:53 PM,86.0,30.9,14,30.00,10.0,Variable,3.5,-,N/A,,Clear,0,2012-10-29 19:53:00
1:53 PM,88.0,28.9,12,29.98,10.0,Calm,Calm,-,N/A,,Clear,0,2012-10-29 20:53:00
2:53 PM,90.0,23.0,9,29.95,10.0,Calm,Calm,-,N/A,,Clear,0,2012-10-29 21:53:00
3:53 PM,90.0,27.0,10,29.95,10.0,Calm,Calm,-,N/A,,Clear,0,2012-10-29 22:53:00
4:53 PM,89.1,27.0,11,29.94,10.0,Calm,Calm,-,N/A,,Clear,0,2012-10-29 23:53:00
5:53 PM,82.0,37.0,20,29.94,10.0,Calm,Calm,-,N/A,,Clear,0,2012-10-30 00:53:00
6:53 PM,75.9,37.9,25,29.95,10.0,Calm,Calm,-,N/A,,Clear,0,2012-10-30 01:53:00
7:53 PM,72.0,37.0,28,29.95,10.0,Calm,Calm,-,N/A,,Clear,0,2012-10-30 02:53:00
8:53 PM,71.1,34.0,26,29.96,6.0,NNE,3.5,-,N/A,,Haze,20,2012-10-30 03:53:00
9:53 PM,64.9,37.9,37,29.97,10.0,Calm,Calm,-,N/A,,Clear,0,2012-10-30 04:53:00
10:53 PM,63.0,39.0,41,29.97,10.0,Calm,Calm,-,N/A,,Clear,0,2012-10-30 05:53:00
11:53 PM,61.0,34.0,36,29.97,10.0,WSW,5.8,-,N/A,,Clear,250,2012-10-30 06:53:00